Time,TemperatureF,DewpointF,PressureIn,WindDirection,WindDirectionDegrees,WindSpeedMPH,WindSpeedGustMPH,Humidity,HourlyPrecipIn,Conditions,Clouds,dailyrainin,SoftwareType,DateUTC
2013-06-20 00:00:00,62.1,52.6,29.97,South,170,0.0,3.0,71,0.00,,---,0.00,VWS V14.00,2013-06-20 05:00:00,
2013-06-20 00:03:00,62.0,52.5,29.97,South,169,0.0,0.0,71,0.00,,---,0.00,VWS V14.00,2013-06-20 05:03:00,
2013-06-20 00:05:00,61.9,52.0,29.97,South,169,0.0,0.0,70,0.00,,---,0.00,VWS V14.00,2013-06-20 05:05:00,
2013-06-20 00:08:00,61.9,52.4,29.97,South,170,0.0,1.0,71,0.00,,---,0.00,VWS V14.00,2013-06-20 05:08:00,
2013-06-20 00:10:00,61.9,52.0,29.97,South,170,0.0,1.0,70,0.00,,---,0.00,VWS V14.00,2013-06-20 05:10:00,
2013-06-20 00:13:00,62.2,51.5,29.97,South,170,1.0,4.0,68,0.00,,---,0.00,VWS V14.00,2013-06-20 05:13:00,
2013-06-20 00:15:00,62.6,51.5,29.97,SSE,149,1.0,4.0,67,0.00,,---,0.00,VWS V14.00,2013-06-20 05:15:00,
2013-06-20 00:18:00,63.3,51.3,29.97,SSE,152,3.0,4.0,65,0.00,,---,0.00,VWS V14.00,2013-06-20 05:18:00,
2013-06-20 00:20:00,63.6,51.2,29.97,SSE,155,0.0,4.0,64,0.00,,---,0.00,VWS V14.00,2013-06-20 05:20:00,
2013-06-20 00:23:00,63.8,51.0,29.96,SSE,155,0.0,4.0,63,0.00,,---,0.00,VWS V14.00,2013-06-20 05:23:00,
2013-06-20 00:25:00,63.9,51.1,29.97,SSE,155,0.0,4.0,63,0.00,,---,0.00,VWS V14.00,2013-06-20 05:25:00,
2013-06-20 00:28:00,63.9,50.6,29.97,SSE,155,0.0,1.0,62,0.00,,---,0.00,VWS V14.00,2013-06-20 05:28:00,
2013-06-20 00:30:00,64.0,50.7,29.97,SSE,155,0.0,2.0,62,0.00,,---,0.00,VWS V14.00,2013-06-20 05:30:00,
2013-06-20 00:33:00,63.9,51.1,29.97,SSE,153,0.0,0.0,63,0.00,,---,0.00,VWS V14.00,2013-06-20 05:33:00,
2013-06-20 00:35:00,63.9,51.1,29.97,SSE,153,0.0,1.0,63,0.00,,---,0.00,VWS V14.00,2013-06-20 05:35:00,
2013-06-20 00:38:00,63.7,50.9,29.97,SSE,153,0.0,0.0,63,0.00,,---,0.00,VWS V14.00,2013-06-20 05:38:00,
2013-06-20 00:40:00,63.6,50.8,29.97,ESE,114,2.0,3.0,63,0.00,,---,0.00,VWS V14.00,2013-06-20 05:40:00,
2013-06-20 00:43:00,63.5,50.3,29.97,ESE,115,0.0,2.0,62,0.00,,---,0.00,VWS V14.00,2013-06-20 05:43:00,
2013-06-20 00:45:00,63.5,50.7,29.97,ESE,115,0.0,2.0,63,0.00,,---,0.00,VWS V14.00,2013-06-20 05:45:00,
2013-06-20 00:48:00,63.4,50.6,29.97,ESE,115,0.0,0.0,63,0.00,,---,0.00,VWS V14.00,2013-06-20 05:48:00,
2013-06-20 00:50:00,63.3,50.5,29.97,ESE,115,0.0,0.0,63,0.00,,---,0.00,VWS V14.00,2013-06-20 05:50:00,
2013-06-20 00:53:00,63.2,50.4,29.97,ESE,115,0.0,1.0,63,0.00,,---,0.00,VWS V14.00,2013-06-20 05:53:00,
2013-06-20 00:55:00,63.2,50.0,29.98,ESE,114,1.0,1.0,62,0.00,,---,0.00,VWS V14.00,2013-06-20 05:55:00,
2013-06-20 00:58:00,63.3,50.1,29.97,SSE,166,0.0,2.0,62,0.00,,---,0.00,VWS V14.00,2013-06-20 05:58:00,
2013-06-20 01:00:00,63.3,50.1,29.97,SSE,164,0.0,2.0,62,0.00,,---,0.00,VWS V14.00,2013-06-20 06:00:00,
2013-06-20 01:03:00,63.4,50.2,29.97,SSE,164,0.0,0.0,62,0.00,,---,0.00,VWS V14.00,2013-06-20 06:03:00,
2013-06-20 01:05:00,63.4,50.2,29.97,SSE,164,0.0,0.0,62,0.00,,---,0.00,VWS V14.00,2013-06-20 06:05:00,
2013-06-20 01:08:00,63.3,50.5,29.97,SSE,164,0.0,0.0,63,0.00,,---,0.00,VWS V14.00,2013-06-20 06:08:00,
2013-06-20 01:10:00,63.1,49.9,29.97,SSE,163,0.0,1.0,62,0.00,,---,0.00,VWS V14.00,2013-06-20 06:10:00,
2013-06-20 01:13:00,63.0,50.2,29.97,SE,140,0.0,1.0,63,0.00,,---,0.00,VWS V14.00,2013-06-20 06:13:00,
2013-06-20 01:15:00,63.0,49.8,29.97,SSE,161,0.0,4.0,62,0.00,,---,0.00,VWS V14.00,2013-06-20 06:15:00,
2013-06-20 01:18:00,63.1,49.9,29.97,ESE,121,0.0,5.0,62,0.00,,---,0.00,VWS V14.00,2013-06-20 06:18:00,
2013-06-20 01:20:00,63.1,49.9,29.97,ESE,121,0.0,5.0,62,0.00,,---,0.00,VWS V14.00,2013-06-20 06:20:00,
2013-06-20 01:23:00,63.1,49.9,29.97,South,185,0.0,4.0,62,0.00,,---,0.00,VWS V14.00,2013-06-20 06:23:00,
2013-06-20 01:25:00,63.1,49.9,29.97,South,185,0.0,4.0,62,0.00,,---,0.00,VWS V14.00,2013-06-20 06:25:00,
2013-06-20 01:28:00,63.1,49.9,29.97,South,185,0.0,0.0,62,0.00,,---,0.00,VWS V14.00,2013-06-20 06:28:00,
2013-06-20 01:30:00,63.0,50.2,29.97,SSE,160,1.0,4.0,63,0.00,,---,0.00,VWS V14.00,2013-06-20 06:30:00,
2013-06-20 01:33:00,62.8,50.5,29.97,SSE,160,0.0,1.0,64,0.00,,---,0.00,VWS V14.00,2013-06-20 06:33:00,
2013-06-20 01:35:00,62.7,50.4,29.97,SSE,160,0.0,1.0,64,0.00,,---,0.00,VWS V14.00,2013-06-20 06:35:00,
2013-06-20 01:38:00,62.6,50.3,29.97,SSE,160,0.0,0.0,64,0.00,,---,0.00,VWS V14.00,2013-06-20 06:38:00,
2013-06-20 01:40:00,62.5,50.2,29.97,SSE,160,0.0,0.0,64,0.00,,---,0.00,VWS V14.00,2013-06-20 06:40:00,
2013-06-20 01:43:00,62.3,50.0,29.97,SSE,160,0.0,1.0,64,0.00,,---,0.00,VWS V14.00,2013-06-20 06:43:00,
2013-06-20 01:45:00,62.2,49.9,29.97,SSE,160,0.0,1.0,64,0.00,,---,0.00,VWS V14.00,2013-06-20 06:45:00,
2013-06-20 01:48:00,62.1,49.8,29.97,SSE,160,0.0,1.0,64,0.00,,---,0.00,VWS V14.00,2013-06-20 06:48:00,
2013-06-20 01:50:00,62.1,49.8,29.97,SSE,160,0.0,1.0,64,0.00,,---,0.00,VWS V14.00,2013-06-20 06:50:00,
2013-06-20 01:53:00,62.0,49.7,29.97,SSE,160,0.0,1.0,64,0.00,,---,0.00,VWS V14.00,2013-06-20 06:53:00,
2013-06-20 01:55:00,62.0,49.7,29.97,SSE,160,0.0,1.0,64,0.00,,---,0.00,VWS V14.00,2013-06-20 06:55:00,
2013-06-20 01:58:00,62.0,49.7,29.97,SE,138,0.0,2.0,64,0.00,,---,0.00,VWS V14.00,2013-06-20 06:58:00,
2013-06-20 02:00:00,62.0,49.3,29.97,SE,138,0.0,2.0,63,0.00,,---,0.00,VWS V14.00,2013-06-20 07:00:00,
2013-06-20 02:03:00,62.1,49.8,29.97,SE,138,0.0,1.0,64,0.00,,---,0.00,VWS V14.00,2013-06-20 07:03:00,
2013-06-20 02:05:00,62.1,50.2,29.97,SE,138,0.0,1.0,65,0.00,,---,0.00,VWS V14.00,2013-06-20 07:05:00,
2013-06-20 02:08:00,62.0,50.1,29.97,SE,138,0.0,1.0,65,0.00,,---,0.00,VWS V14.00,2013-06-20 07:08:00,
2013-06-20 02:10:00,61.8,49.9,29.97,SE,137,0.0,1.0,65,0.00,,---,0.00,VWS V14.00,2013-06-20 07:10:00,
2013-06-20 02:13:00,61.6,50.5,29.97,SE,137,0.0,1.0,67,0.00,,---,0.00,VWS V14.00,2013-06-20 07:13:00,
2013-06-20 02:15:00,61.5,50.5,29.97,SE,137,0.0,1.0,67,0.00,,---,0.00,VWS V14.00,2013-06-20 07:15:00,
2013-06-20 02:18:00,61.3,50.3,29.97,SE,138,0.0,1.0,67,0.00,,---,0.00,VWS V14.00,2013-06-20 07:18:00,
2013-06-20 02:20:00,61.2,50.2,29.97,SE,138,0.0,1.0,67,0.00,,---,0.00,VWS V14.00,2013-06-20 07:20:00,
2013-06-20 02:23:00,60.9,50.3,29.97,SE,137,0.0,0.0,68,0.00,,---,0.00,VWS V14.00,2013-06-20 07:23:00,
2013-06-20 02:25:00,60.8,50.2,29.97,SE,137,0.0,0.0,68,0.00,,---,0.00,VWS V14.00,2013-06-20 07:25:00,
2013-06-20 02:28:00,60.6,50.4,29.97,SE,138,0.0,1.0,69,0.00,,---,0.00,VWS V14.00,2013-06-20 07:28:00,
2013-06-20 02:30:00,60.4,50.2,29.97,SE,137,0.0,1.0,69,0.00,,---,0.00,VWS V14.00,2013-06-20 07:30:00,
2013-06-20 02:33:00,60.3,49.7,29.97,SE,137,0.0,1.0,68,0.00,,---,0.00,VWS V14.00,2013-06-20 07:33:00,
2013-06-20 02:35:00,60.4,49.4,29.97,SE,138,0.0,2.0,67,0.00,,---,0.00,VWS V14.00,2013-06-20 07:35:00,
2013-06-20 02:38:00,60.6,49.6,29.97,SE,138,0.0,2.0,67,0.00,,---,0.00,VWS V14.00,2013-06-20 07:38:00,
2013-06-20 02:40:00,60.7,49.3,29.97,SE,138,0.0,2.0,66,0.00,,---,0.00,VWS V14.00,2013-06-20 07:40:00,
2013-06-20 02:43:00,60.8,49.8,29.97,SE,138,0.0,1.0,67,0.00,,---,0.00,VWS V14.00,2013-06-20 07:43:00,
2013-06-20 02:45:00,60.7,50.1,29.97,SE,138,0.0,1.0,68,0.00,,---,0.00,VWS V14.00,2013-06-20 07:45:00,
2013-06-20 02:48:00,60.5,50.7,29.97,SE,138,0.0,0.0,70,0.00,,---,0.00,VWS V14.00,2013-06-20 07:48:00,
2013-06-20 02:50:00,60.4,50.6,29.97,SE,138,0.0,0.0,70,0.00,,---,0.00,VWS V14.00,2013-06-20 07:50:00,
2013-06-20 02:53:00,60.2,50.0,29.98,SE,138,0.0,0.0,69,0.00,,---,0.00,VWS V14.00,2013-06-20 07:53:00,
2013-06-20 02:55:00,60.1,50.7,29.97,SE,138,0.0,1.0,71,0.00,,---,0.00,VWS V14.00,2013-06-20 07:55:00,
2013-06-20 02:58:00,59.8,50.8,29.97,SE,137,0.0,0.0,72,0.00,,---,0.00,VWS V14.00,2013-06-20 07:58:00,
2013-06-20 03:00:00,59.7,50.3,29.97,SE,137,0.0,1.0,71,0.00,,---,0.00,VWS V14.00,2013-06-20 08:00:00,
2013-06-20 03:03:00,59.5,50.1,29.97,SE,137,0.0,0.0,71,0.00,,---,0.00,VWS V14.00,2013-06-20 08:03:00,
2013-06-20 03:05:00,59.4,50.4,29.97,SE,137,0.0,0.0,72,0.00,,---,0.00,VWS V14.00,2013-06-20 08:05:00,
2013-06-20 03:08:00,59.3,50.3,29.97,SE,138,0.0,0.0,72,0.00,,---,0.00,VWS V14.00,2013-06-20 08:08:00,
2013-06-20 03:10:00,59.2,50.2,29.97,SE,138,0.0,0.0,72,0.00,,---,0.00,VWS V14.00,2013-06-20 08:10:00,
2013-06-20 03:13:00,59.1,49.7,29.97,SE,138,0.0,0.0,71,0.00,,---,0.00,VWS V14.00,2013-06-20 08:13:00,
2013-06-20 03:15:00,59.0,50.4,29.97,SE,138,0.0,0.0,73,0.00,,---,0.00,VWS V14.00,2013-06-20 08:15:00,
2013-06-20 03:18:00,59.0,49.6,29.97,SE,137,0.0,0.0,71,0.00,,---,0.00,VWS V14.00,2013-06-20 08:18:00,
2013-06-20 03:20:00,59.0,49.6,29.97,SE,138,0.0,0.0,71,0.00,,---,0.00,VWS V14.00,2013-06-20 08:20:00,
2013-06-20 03:23:00,59.0,50.4,29.97,SE,137,0.0,0.0,73,0.00,,---,0.00,VWS V14.00,2013-06-20 08:23:00,
2013-06-20 03:25:00,59.0,49.6,29.97,SE,137,0.0,0.0,71,0.00,,---,0.00,VWS V14.00,2013-06-20 08:25:00,
2013-06-20 03:28:00,59.1,49.3,29.97,SE,138,0.0,1.0,70,0.00,,---,0.00,VWS V14.00,2013-06-20 08:28:00,
2013-06-20 03:30:00,59.1,49.7,29.97,SE,138,0.0,1.0,71,0.00,,---,0.00,VWS V14.00,2013-06-20 08:30:00,
2013-06-20 03:33:00,59.1,49.7,29.97,SE,137,0.0,0.0,71,0.00,,---,0.00,VWS V14.00,2013-06-20 08:33:00,
2013-06-20 03:35:00,59.1,49.7,29.97,SE,138,0.0,0.0,71,0.00,,---,0.00,VWS V14.00,2013-06-20 08:35:00,
2013-06-20 03:38:00,59.1,49.3,29.97,SE,138,0.0,0.0,70,0.00,,---,0.00,VWS V14.00,2013-06-20 08:38:00,
2013-06-20 03:40:00,59.1,49.3,29.97,SE,138,0.0,0.0,70,0.00,,---,0.00,VWS V14.00,2013-06-20 08:40:00,
2013-06-20 03:43:00,59.1,49.3,29.98,SE,138,0.0,0.0,70,0.00,,---,0.00,VWS V14.00,2013-06-20 08:43:00,
2013-06-20 03:45:00,59.0,49.6,29.98,SE,137,0.0,0.0,71,0.00,,---,0.00,VWS V14.00,2013-06-20 08:45:00,
2013-06-20 03:48:00,58.9,49.5,29.98,SE,138,0.0,0.0,71,0.00,,---,0.00,VWS V14.00,2013-06-20 08:48:00,
2013-06-20 03:50:00,58.8,49.0,29.98,SE,138,0.0,0.0,70,0.00,,---,0.00,VWS V14.00,2013-06-20 08:50:00,
2013-06-20 03:53:00,58.7,49.3,29.98,SE,138,0.0,0.0,71,0.00,,---,0.00,VWS V14.00,2013-06-20 08:53:00,
2013-06-20 03:55:00,58.7,49.3,29.98,SE,138,0.0,0.0,71,0.00,,---,0.00,VWS V14.00,2013-06-20 08:55:00,
2013-06-20 03:58:00,58.6,48.9,29.98,SE,138,0.0,0.0,70,0.00,,---,0.00,VWS V14.00,2013-06-20 08:58:00,
2013-06-20 04:00:00,58.6,49.2,29.98,SE,137,0.0,0.0,71,0.00,,---,0.00,VWS V14.00,2013-06-20 09:00:00,
2013-06-20 04:03:00,58.6,48.9,29.98,SE,138,0.0,1.0,70,0.00,,---,0.00,VWS V14.00,2013-06-20 09:03:00,
2013-06-20 04:05:00,58.6,48.9,29.98,SE,137,0.0,1.0,70,0.00,,---,0.00,VWS V14.00,2013-06-20 09:05:00,
2013-06-20 04:08:00,58.5,48.8,29.98,SE,138,0.0,0.0,70,0.00,,---,0.00,VWS V14.00,2013-06-20 09:08:00,
2013-06-20 04:10:00,58.5,48.8,29.98,SE,138,0.0,0.0,70,0.00,,---,0.00,VWS V14.00,2013-06-20 09:10:00,
2013-06-20 04:13:00,58.6,48.9,29.98,SE,138,0.0,1.0,70,0.00,,---,0.00,VWS V14.00,2013-06-20 09:13:00,
2013-06-20 04:15:00,58.6,48.9,29.98,SE,138,0.0,1.0,70,0.00,,---,0.00,VWS V14.00,2013-06-20 09:15:00,
2013-06-20 04:18:00,58.6,48.9,29.98,SE,138,0.0,0.0,70,0.00,,---,0.00,VWS V14.00,2013-06-20 09:18:00,
2013-06-20 04:20:00,58.6,48.9,29.98,SE,137,1.0,1.0,70,0.00,,---,0.00,VWS V14.00,2013-06-20 09:20:00,
2013-06-20 04:23:00,58.7,49.0,29.98,SE,137,0.0,1.0,70,0.00,,---,0.00,VWS V14.00,2013-06-20 09:23:00,
2013-06-20 04:25:00,58.7,48.6,29.98,SE,137,1.0,2.0,69,0.00,,---,0.00,VWS V14.00,2013-06-20 09:25:00,
2013-06-20 04:28:00,58.9,48.4,29.98,SE,138,0.0,1.0,68,0.00,,---,0.00,VWS V14.00,2013-06-20 09:28:00,
2013-06-20 04:30:00,59.1,48.6,29.98,SE,138,0.0,1.0,68,0.00,,---,0.00,VWS V14.00,2013-06-20 09:30:00,
2013-06-20 04:33:00,59.1,48.6,29.98,SE,138,0.0,0.0,68,0.00,,---,0.00,VWS V14.00,2013-06-20 09:33:00,
2013-06-20 04:35:00,59.1,48.6,29.98,SE,137,0.0,2.0,68,0.00,,---,0.00,VWS V14.00,2013-06-20 09:35:00,
2013-06-20 04:38:00,59.1,49.0,29.98,SE,137,0.0,0.0,69,0.00,,---,0.00,VWS V14.00,2013-06-20 09:38:00,
2013-06-20 04:40:00,59.0,48.5,29.98,SE,137,0.0,1.0,68,0.00,,---,0.00,VWS V14.00,2013-06-20 09:40:00,
2013-06-20 04:43:00,59.0,48.5,29.98,SE,137,0.0,0.0,68,0.00,,---,0.00,VWS V14.00,2013-06-20 09:43:00,
2013-06-20 04:45:00,59.1,48.6,29.98,SE,138,0.0,0.0,68,0.00,,---,0.00,VWS V14.00,2013-06-20 09:45:00,
2013-06-20 04:48:00,59.1,48.2,29.98,SE,138,0.0,0.0,67,0.00,,---,0.00,VWS V14.00,2013-06-20 09:48:00,
2013-06-20 04:50:00,59.2,48.3,29.98,SE,138,0.0,1.0,67,0.00,,---,0.00,VWS V14.00,2013-06-20 09:50:00,
2013-06-20 04:53:00,59.4,48.5,29.98,SE,138,0.0,0.0,67,0.00,,---,0.00,VWS V14.00,2013-06-20 09:53:00,
2013-06-20 04:55:00,59.4,48.5,29.98,SE,138,0.0,0.0,67,0.00,,---,0.00,VWS V14.00,2013-06-20 09:55:00,
2013-06-20 04:58:00,59.5,48.5,29.98,SE,138,0.0,0.0,67,0.00,,---,0.00,VWS V14.00,2013-06-20 09:58:00,
2013-06-20 05:00:00,59.5,48.5,29.98,SE,137,0.0,0.0,67,0.00,,---,0.00,VWS V14.00,2013-06-20 10:00:00,
2013-06-20 05:03:00,59.5,48.2,29.98,SE,137,0.0,0.0,66,0.00,,---,0.00,VWS V14.00,2013-06-20 10:03:00,
2013-06-20 05:05:00,59.5,48.5,29.98,SE,138,0.0,0.0,67,0.00,,---,0.00,VWS V14.00,2013-06-20 10:05:00,
2013-06-20 05:08:00,59.5,48.5,29.98,SE,138,0.0,1.0,67,0.00,,---,0.00,VWS V14.00,2013-06-20 10:08:00,
2013-06-20 05:10:00,59.4,48.5,29.98,SE,137,2.0,2.0,67,0.00,,---,0.00,VWS V14.00,2013-06-20 10:10:00,
2013-06-20 05:13:00,59.4,48.8,29.97,SE,138,0.0,3.0,68,0.00,,---,0.00,VWS V14.00,2013-06-20 10:13:00,
2013-06-20 05:15:00,59.4,48.8,29.98,SE,137,0.0,3.0,68,0.00,,---,0.00,VWS V14.00,2013-06-20 10:15:00,
2013-06-20 05:18:00,59.3,48.4,29.98,SE,137,0.0,1.0,67,0.00,,---,0.00,VWS V14.00,2013-06-20 10:18:00,
2013-06-20 05:20:00,59.3,48.4,29.98,SE,137,0.0,1.0,67,0.00,,---,0.00,VWS V14.00,2013-06-20 10:20:00,
2013-06-20 05:23:00,59.3,48.8,29.98,SE,138,1.0,1.0,68,0.00,,---,0.00,VWS V14.00,2013-06-20 10:23:00,
2013-06-20 05:25:00,59.3,48.4,29.98,SE,138,0.0,1.0,67,0.00,,---,0.00,VWS V14.00,2013-06-20 10:25:00,
2013-06-20 05:28:00,59.3,48.8,29.98,SE,138,0.0,0.0,68,0.00,,---,0.00,VWS V14.00,2013-06-20 10:28:00,
2013-06-20 05:30:00,59.3,49.1,29.98,SE,138,0.0,1.0,69,0.00,,---,0.00,VWS V14.00,2013-06-20 10:30:00,
2013-06-20 05:33:00,59.2,48.7,29.98,SE,138,0.0,1.0,68,0.00,,---,0.00,VWS V14.00,2013-06-20 10:33:00,
2013-06-20 05:35:00,59.2,48.7,29.98,SE,137,0.0,1.0,68,0.00,,---,0.00,VWS V14.00,2013-06-20 10:35:00,
2013-06-20 05:38:00,59.1,49.0,29.99,SE,137,0.0,1.0,69,0.00,,---,0.00,VWS V14.00,2013-06-20 10:38:00,
2013-06-20 05:40:00,59.0,48.9,29.99,SE,137,0.0,1.0,69,0.00,,---,0.00,VWS V14.00,2013-06-20 10:40:00,
2013-06-20 05:43:00,58.8,49.8,29.99,SE,138,0.0,0.0,72,0.00,,---,0.00,VWS V14.00,2013-06-20 10:43:00,
2013-06-20 05:45:00,58.7,49.7,29.99,SE,138,0.0,1.0,72,0.00,,---,0.00,VWS V14.00,2013-06-20 10:45:00,
2013-06-20 05:48:00,58.5,49.9,29.99,SE,138,0.0,0.0,73,0.00,,---,0.00,VWS V14.00,2013-06-20 10:48:00,
2013-06-20 05:50:00,58.4,49.8,29.99,SE,137,0.0,0.0,73,0.00,,---,0.00,VWS V14.00,2013-06-20 10:50:00,
2013-06-20 05:53:00,58.2,50.0,29.99,SE,137,0.0,0.0,74,0.00,,---,0.00,VWS V14.00,2013-06-20 10:53:00,
2013-06-20 05:55:00,58.2,50.0,29.99,SE,137,0.0,0.0,74,0.00,,---,0.00,VWS V14.00,2013-06-20 10:55:00,
2013-06-20 05:58:00,58.0,50.1,29.99,SE,137,0.0,0.0,75,0.00,,---,0.00,VWS V14.00,2013-06-20 10:58:00,
2013-06-20 06:00:00,58.0,50.5,29.99,SE,138,0.0,0.0,76,0.00,,---,0.00,VWS V14.00,2013-06-20 11:00:00,
2013-06-20 06:03:00,58.0,50.5,29.99,SE,138,0.0,0.0,76,0.00,,---,0.00,VWS V14.00,2013-06-20 11:03:00,
2013-06-20 06:05:00,57.9,50.4,29.99,SE,138,0.0,0.0,76,0.00,,---,0.00,VWS V14.00,2013-06-20 11:05:00,
2013-06-20 06:08:00,57.8,49.9,29.99,SE,138,0.0,1.0,75,0.00,,---,0.00,VWS V14.00,2013-06-20 11:08:00,
2013-06-20 06:10:00,57.8,49.6,29.99,SE,138,0.0,1.0,74,0.00,,---,0.00,VWS V14.00,2013-06-20 11:10:00,
2013-06-20 06:13:00,58.0,49.4,29.99,SE,138,0.0,2.0,73,0.00,,---,0.00,VWS V14.00,2013-06-20 11:13:00,
2013-06-20 06:15:00,58.1,49.5,29.99,SE,137,0.0,2.0,73,0.00,,---,0.00,VWS V14.00,2013-06-20 11:15:00,
2013-06-20 06:18:00,58.4,49.8,30.00,SE,138,0.0,1.0,73,0.00,,---,0.00,VWS V14.00,2013-06-20 11:18:00,
2013-06-20 06:20:00,58.5,49.9,29.99,SE,138,0.0,1.0,73,0.00,,---,0.00,VWS V14.00,2013-06-20 11:20:00,
2013-06-20 06:23:00,59.0,50.7,30.00,SE,138,0.0,0.0,74,0.00,,---,0.00,VWS V14.00,2013-06-20 11:23:00,
2013-06-20 06:25:00,59.2,50.6,29.99,SE,137,0.0,0.0,73,0.00,,---,0.00,VWS V14.00,2013-06-20 11:25:00,
2013-06-20 06:28:00,59.6,51.0,30.00,SE,138,0.0,1.0,73,0.00,,---,0.00,VWS V14.00,2013-06-20 11:28:00,
2013-06-20 06:30:00,59.8,51.1,29.99,SE,137,0.0,1.0,73,0.00,,---,0.00,VWS V14.00,2013-06-20 11:30:00,
2013-06-20 06:33:00,60.2,51.2,29.99,NNW,342,0.0,1.0,72,0.00,,---,0.00,VWS V14.00,2013-06-20 11:33:00,
2013-06-20 06:35:00,60.3,51.2,29.99,NNW,336,0.0,1.0,72,0.00,,---,0.00,VWS V14.00,2013-06-20 11:35:00,
2013-06-20 06:38:00,60.7,50.5,29.99,WSW,250,0.0,0.0,69,0.00,,---,0.00,VWS V14.00,2013-06-20 11:38:00,
2013-06-20 06:40:00,60.9,51.1,29.99,WSW,252,0.0,0.0,70,0.00,,---,0.00,VWS V14.00,2013-06-20 11:40:00,
2013-06-20 06:43:00,61.4,51.2,29.99,SSE,159,0.0,0.0,69,0.00,,---,0.00,VWS V14.00,2013-06-20 11:43:00,
2013-06-20 06:45:00,61.7,50.6,29.99,SSE,159,0.0,1.0,67,0.00,,---,0.00,VWS V14.00,2013-06-20 11:45:00,
2013-06-20 06:48:00,62.3,50.4,29.99,SSE,159,0.0,0.0,65,0.00,,---,0.00,VWS V14.00,2013-06-20 11:48:00,
2013-06-20 06:50:00,62.6,50.7,29.99,SSE,159,0.0,0.0,65,0.00,,---,0.00,VWS V14.00,2013-06-20 11:50:00,
2013-06-20 06:53:00,63.1,50.3,29.99,SSE,159,0.0,1.0,63,0.00,,---,0.00,VWS V14.00,2013-06-20 11:53:00,
2013-06-20 06:55:00,63.4,51.4,29.99,SSE,159,0.0,1.0,65,0.00,,---,0.00,VWS V14.00,2013-06-20 11:55:00,
2013-06-20 06:58:00,63.6,50.4,29.99,South,187,1.0,4.0,62,0.00,,---,0.00,VWS V14.00,2013-06-20 11:58:00,
2013-06-20 07:00:00,63.6,50.4,29.99,South,187,0.0,4.0,62,0.00,,---,0.00,VWS V14.00,2013-06-20 12:00:00,
2013-06-20 07:03:00,63.5,50.3,29.99,South,187,0.0,3.0,62,0.00,,---,0.00,VWS V14.00,2013-06-20 12:03:00,
2013-06-20 07:05:00,63.6,50.4,29.99,South,188,0.0,3.0,62,0.00,,---,0.00,VWS V14.00,2013-06-20 12:05:00,
2013-06-20 07:08:00,63.8,50.5,29.99,South,182,0.0,2.0,62,0.00,,---,0.00,VWS V14.00,2013-06-20 12:08:00,
2013-06-20 07:10:00,63.9,50.6,29.99,South,182,0.0,2.0,62,0.00,,---,0.00,VWS V14.00,2013-06-20 12:10:00,
2013-06-20 07:13:00,64.1,51.3,29.99,South,189,0.0,2.0,63,0.00,,---,0.00,VWS V14.00,2013-06-20 12:13:00,
2013-06-20 07:15:00,64.3,51.9,29.99,South,189,0.0,2.0,64,0.00,,---,0.00,VWS V14.00,2013-06-20 12:15:00,
2013-06-20 07:18:00,64.7,51.4,29.99,South,189,1.0,1.0,62,0.00,,---,0.00,VWS V14.00,2013-06-20 12:18:00,
2013-06-20 07:20:00,64.9,51.6,30.00,South,173,4.0,4.0,62,0.00,,---,0.00,VWS V14.00,2013-06-20 12:20:00,
2013-06-20 07:23:00,65.0,51.2,29.99,SSW,210,0.0,6.0,61,0.00,,---,0.00,VWS V14.00,2013-06-20 12:23:00,
2013-06-20 07:25:00,65.0,51.7,29.99,SSE,167,0.0,6.0,62,0.00,,---,0.00,VWS V14.00,2013-06-20 12:25:00,
2013-06-20 07:28:00,65.2,51.9,30.00,SSE,161,3.0,4.0,62,0.00,,---,0.00,VWS V14.00,2013-06-20 12:28:00,
2013-06-20 07:30:00,65.2,51.9,30.00,South,170,2.0,5.0,62,0.00,,---,0.00,VWS V14.00,2013-06-20 12:30:00,
2013-06-20 07:33:00,65.4,52.5,30.00,South,169,0.0,4.0,63,0.00,,---,0.00,VWS V14.00,2013-06-20 12:33:00,
2013-06-20 07:35:00,65.6,52.7,29.99,SSE,159,0.0,4.0,63,0.00,,---,0.00,VWS V14.00,2013-06-20 12:35:00,
2013-06-20 07:38:00,65.8,52.9,30.00,South,176,1.0,3.0,63,0.00,,---,0.00,VWS V14.00,2013-06-20 12:38:00,
2013-06-20 07:40:00,65.9,52.5,30.00,South,188,1.0,5.0,62,0.00,,---,0.00,VWS V14.00,2013-06-20 12:40:00,
2013-06-20 07:43:00,66.0,53.1,29.99,SSE,167,1.0,4.0,63,0.00,,---,0.00,VWS V14.00,2013-06-20 12:43:00,
2013-06-20 07:45:00,66.1,53.2,29.99,South,171,1.0,4.0,63,0.00,,---,0.00,VWS V14.00,2013-06-20 12:45:00,
2013-06-20 07:48:00,66.2,53.2,29.99,South,179,2.0,4.0,63,0.00,,---,0.00,VWS V14.00,2013-06-20 12:48:00,
2013-06-20 07:50:00,66.3,53.8,29.99,SSE,159,4.0,5.0,64,0.00,,---,0.00,VWS V14.00,2013-06-20 12:50:00,
2013-06-20 07:53:00,66.6,54.5,29.99,SSE,159,2.0,4.0,65,0.00,,---,0.00,VWS V14.00,2013-06-20 12:53:00,
2013-06-20 07:55:00,66.8,54.7,29.99,South,178,2.0,4.0,65,0.00,,---,0.00,VWS V14.00,2013-06-20 12:55:00,
2013-06-20 07:58:00,67.2,54.6,30.00,SSE,161,4.0,4.0,64,0.00,,---,0.00,VWS V14.00,2013-06-20 12:58:00,
2013-06-20 08:00:00,67.3,54.3,30.00,South,175,5.0,5.0,63,0.00,,---,0.00,VWS V14.00,2013-06-20 13:00:00,
2013-06-20 08:03:00,67.4,54.8,30.00,SSE,164,6.0,6.0,64,0.00,,---,0.00,VWS V14.00,2013-06-20 13:03:00,
2013-06-20 08:05:00,67.4,54.8,30.00,SSE,168,0.0,6.0,64,0.00,,---,0.00,VWS V14.00,2013-06-20 13:05:00,
2013-06-20 08:08:00,67.8,55.2,30.00,SSW,196,4.0,4.0,64,0.00,,---,0.00,VWS V14.00,2013-06-20 13:08:00,
2013-06-20 08:10:00,68.0,56.2,30.00,SSW,196,0.0,4.0,66,0.00,,---,0.00,VWS V14.00,2013-06-20 13:10:00,
2013-06-20 08:13:00,68.5,55.9,30.00,South,175,3.0,4.0,64,0.00,,---,0.00,VWS V14.00,2013-06-20 13:13:00,
2013-06-20 08:15:00,68.6,56.0,30.00,South,169,3.0,4.0,64,0.00,,---,0.00,VWS V14.00,2013-06-20 13:15:00,
2013-06-20 08:18:00,68.8,56.1,30.00,South,169,1.0,5.0,64,0.00,,---,0.00,VWS V14.00,2013-06-20 13:18:00,
2013-06-20 08:20:00,69.0,56.8,30.00,South,170,0.0,5.0,65,0.00,,---,0.00,VWS V14.00,2013-06-20 13:20:00,
2013-06-20 08:23:00,69.3,57.0,30.00,South,179,3.0,5.0,65,0.00,,---,0.00,VWS V14.00,2013-06-20 13:23:00,
2013-06-20 08:25:00,69.5,57.2,30.00,South,179,0.0,5.0,65,0.00,,---,0.00,VWS V14.00,2013-06-20 13:25:00,
2013-06-20 08:28:00,70.1,57.4,30.00,SSW,205,0.0,4.0,64,0.00,,---,0.00,VWS V14.00,2013-06-20 13:28:00,
2013-06-20 08:30:00,70.2,57.5,29.99,SSW,203,1.0,4.0,64,0.00,,---,0.00,VWS V14.00,2013-06-20 13:30:00,
2013-06-20 08:33:00,70.7,57.9,29.99,South,188,0.0,3.0,64,0.00,,---,0.00,VWS V14.00,2013-06-20 13:33:00,
2013-06-20 08:35:00,70.8,58.0,29.99,South,188,0.0,3.0,64,0.00,,---,0.00,VWS V14.00,2013-06-20 13:35:00,
2013-06-20 08:38:00,71.2,57.5,29.99,SSE,165,3.0,4.0,62,0.00,,---,0.00,VWS V14.00,2013-06-20 13:38:00,
2013-06-20 08:40:00,71.2,58.0,30.00,SSE,156,0.0,5.0,63,0.00,,---,0.00,VWS V14.00,2013-06-20 13:40:00,
2013-06-20 08:43:00,71.6,58.3,30.00,SSE,156,1.0,1.0,63,0.00,,---,0.00,VWS V14.00,2013-06-20 13:43:00,
2013-06-20 08:45:00,71.7,58.5,30.00,SSE,150,0.0,4.0,63,0.00,,---,0.00,VWS V14.00,2013-06-20 13:45:00,
2013-06-20 08:48:00,72.1,58.4,30.00,SSE,150,0.0,2.0,62,0.00,,---,0.00,VWS V14.00,2013-06-20 13:48:00,
2013-06-20 08:50:00,72.3,59.0,30.00,SSE,150,3.0,4.0,63,0.00,,---,0.00,VWS V14.00,2013-06-20 13:50:00,
2013-06-20 08:53:00,72.4,58.2,30.00,SSE,149,3.0,4.0,61,0.00,,---,0.00,VWS V14.00,2013-06-20 13:53:00,
2013-06-20 08:55:00,72.4,58.7,29.99,SSE,165,2.0,5.0,62,0.00,,---,0.00,VWS V14.00,2013-06-20 13:55:00,
2013-06-20 08:58:00,72.5,59.2,29.99,South,175,2.0,6.0,63,0.00,,---,0.00,VWS V14.00,2013-06-20 13:58:00,
2013-06-20 09:00:00,72.6,59.3,29.99,South,173,3.0,6.0,63,0.00,,---,0.00,VWS V14.00,2013-06-20 14:00:00,
2013-06-20 09:03:00,72.9,60.0,30.00,SSE,159,0.0,4.0,64,0.00,,---,0.00,VWS V14.00,2013-06-20 14:03:00,
2013-06-20 09:05:00,73.0,60.1,30.00,SSE,160,2.0,4.0,64,0.00,,---,0.00,VWS V14.00,2013-06-20 14:05:00,
2013-06-20 09:08:00,73.1,60.2,30.00,South,173,1.0,4.0,64,0.00,,---,0.00,VWS V14.00,2013-06-20 14:08:00,
2013-06-20 09:10:00,73.2,59.9,30.00,South,173,3.0,4.0,63,0.00,,---,0.00,VWS V14.00,2013-06-20 14:10:00,
2013-06-20 09:13:00,73.5,60.6,30.00,SE,145,1.0,4.0,64,0.00,,---,0.00,VWS V14.00,2013-06-20 14:13:00,
2013-06-20 09:15:00,73.6,61.1,30.00,SE,146,2.0,4.0,65,0.00,,---,0.00,VWS V14.00,2013-06-20 14:15:00,
2013-06-20 09:18:00,74.0,60.6,30.00,SSE,162,0.0,4.0,63,0.00,,---,0.00,VWS V14.00,2013-06-20 14:18:00,
2013-06-20 09:20:00,74.0,60.6,30.00,SSE,162,0.0,4.0,63,0.00,,---,0.00,VWS V14.00,2013-06-20 14:20:00,
2013-06-20 09:23:00,74.4,60.5,30.00,South,171,4.0,7.0,62,0.00,,---,0.00,VWS V14.00,2013-06-20 14:23:00,
2013-06-20 09:25:00,74.4,60.1,30.00,South,171,1.0,7.0,61,0.00,,---,0.00,VWS V14.00,2013-06-20 14:25:00,
2013-06-20 09:28:00,74.4,60.5,30.00,South,171,0.0,7.0,62,0.00,,---,0.00,VWS V14.00,2013-06-20 14:28:00,
2013-06-20 09:30:00,74.5,62.0,30.00,South,170,0.0,7.0,65,0.00,,---,0.00,VWS V14.00,2013-06-20 14:30:00,
2013-06-20 09:33:00,75.1,62.1,29.99,South,176,3.0,4.0,64,0.00,,---,0.00,VWS V14.00,2013-06-20 14:33:00,
2013-06-20 09:35:00,75.1,61.2,29.99,SSW,204,2.0,10.0,62,0.00,,---,0.00,VWS V14.00,2013-06-20 14:35:00,
2013-06-20 09:38:00,75.4,61.5,29.99,South,169,1.0,10.0,62,0.00,,---,0.00,VWS V14.00,2013-06-20 14:38:00,
2013-06-20 09:40:00,75.5,61.6,29.99,East,82,0.0,10.0,62,0.00,,---,0.00,VWS V14.00,2013-06-20 14:40:00,
2013-06-20 09:43:00,75.9,62.4,29.99,SE,133,0.0,4.0,63,0.00,,---,0.00,VWS V14.00,2013-06-20 14:43:00,
2013-06-20 09:45:00,76.1,62.6,29.99,South,178,1.0,4.0,63,0.00,,---,0.00,VWS V14.00,2013-06-20 14:45:00,
2013-06-20 09:48:00,76.5,62.5,29.99,SSW,194,0.0,4.0,62,0.00,,---,0.00,VWS V14.00,2013-06-20 14:48:00,
2013-06-20 09:50:00,76.6,62.6,29.99,SSE,161,2.0,4.0,62,0.00,,---,0.00,VWS V14.00,2013-06-20 14:50:00,
2013-06-20 09:53:00,76.7,62.2,29.99,SSE,160,2.0,5.0,61,0.00,,---,0.00,VWS V14.00,2013-06-20 14:53:00,
2013-06-20 09:55:00,76.9,62.9,29.99,South,171,2.0,5.0,62,0.00,,---,0.00,VWS V14.00,2013-06-20 14:55:00,
2013-06-20 09:58:00,77.0,62.1,29.98,SSE,159,1.0,6.0,60,0.00,,---,0.00,VWS V14.00,2013-06-20 14:58:00,
2013-06-20 10:00:00,77.0,63.5,29.99,SSE,159,0.0,6.0,63,0.00,,---,0.00,VWS V14.00,2013-06-20 15:00:00,
2013-06-20 10:03:00,77.2,61.3,29.98,SSE,164,5.0,7.0,58,0.00,,---,0.00,VWS V14.00,2013-06-20 15:03:00,
2013-06-20 10:05:00,77.2,61.3,29.98,SE,136,4.0,7.0,58,0.00,,---,0.00,VWS V14.00,2013-06-20 15:05:00,
2013-06-20 10:08:00,77.5,62.1,29.98,South,169,5.0,8.0,59,0.00,,---,0.00,VWS V14.00,2013-06-20 15:08:00,
2013-06-20 10:10:00,77.5,61.6,29.98,South,180,3.0,8.0,58,0.00,,---,0.00,VWS V14.00,2013-06-20 15:10:00,
2013-06-20 10:13:00,77.6,63.1,29.98,SSE,167,3.0,6.0,61,0.00,,---,0.00,VWS V14.00,2013-06-20 15:13:00,
2013-06-20 10:15:00,77.7,62.2,29.98,SSE,161,4.0,6.0,59,0.00,,---,0.00,VWS V14.00,2013-06-20 15:15:00,
2013-06-20 10:18:00,78.2,62.7,29.99,SSE,165,4.0,9.0,59,0.00,,---,0.00,VWS V14.00,2013-06-20 15:18:00,
2013-06-20 10:20:00,78.3,61.8,29.99,SE,127,4.0,9.0,57,0.00,,---,0.00,VWS V14.00,2013-06-20 15:20:00,
2013-06-20 10:23:00,78.6,63.1,29.99,SE,137,3.0,9.0,59,0.00,,---,0.00,VWS V14.00,2013-06-20 15:23:00,
2013-06-20 10:25:00,78.8,61.8,29.99,SSE,163,4.0,9.0,56,0.00,,---,0.00,VWS V14.00,2013-06-20 15:25:00,
2013-06-20 10:28:00,79.2,63.2,29.99,SSE,167,3.0,8.0,58,0.00,,---,0.00,VWS V14.00,2013-06-20 15:28:00,
2013-06-20 10:30:00,79.3,63.7,29.99,SE,142,3.0,8.0,59,0.00,,---,0.00,VWS V14.00,2013-06-20 15:30:00,
2013-06-20 10:33:00,79.8,63.2,29.99,SSE,150,6.0,7.0,57,0.00,,---,0.00,VWS V14.00,2013-06-20 15:33:00,
2013-06-20 10:35:00,79.8,62.7,29.99,SSE,162,2.0,7.0,56,0.00,,---,0.00,VWS V14.00,2013-06-20 15:35:00,
2013-06-20 10:38:00,79.6,62.5,29.99,SSE,150,4.0,11.0,56,0.00,,---,0.00,VWS V14.00,2013-06-20 15:38:00,
2013-06-20 10:40:00,79.6,62.5,29.99,SSE,157,7.0,11.0,56,0.00,,---,0.00,VWS V14.00,2013-06-20 15:40:00,
2013-06-20 10:43:00,79.8,62.2,29.99,SE,129,1.0,9.0,55,0.00,,---,0.00,VWS V14.00,2013-06-20 15:43:00,
2013-06-20 10:45:00,79.9,62.3,29.99,SE,128,4.0,9.0,55,0.00,,---,0.00,VWS V14.00,2013-06-20 15:45:00,
2013-06-20 10:48:00,79.9,61.8,29.99,SE,144,6.0,11.0,54,0.00,,---,0.00,VWS V14.00,2013-06-20 15:48:00,
2013-06-20 10:50:00,79.9,61.3,29.99,SSE,155,2.0,11.0,53,0.00,,---,0.00,VWS V14.00,2013-06-20 15:50:00,
2013-06-20 10:53:00,80.2,63.1,29.99,SSE,165,4.0,10.0,56,0.00,,---,0.00,VWS V14.00,2013-06-20 15:53:00,
2013-06-20 10:55:00,80.2,61.5,29.99,South,179,3.0,10.0,53,0.00,,---,0.00,VWS V14.00,2013-06-20 15:55:00,
2013-06-20 10:58:00,80.3,61.6,30.00,SSE,157,3.0,10.0,53,0.00,,---,0.00,VWS V14.00,2013-06-20 15:58:00,
2013-06-20 11:00:00,80.4,61.2,30.00,SE,140,2.0,10.0,52,0.00,,---,0.00,VWS V14.00,2013-06-20 16:00:00,
2013-06-20 11:03:00,80.3,61.6,30.00,SSE,161,2.0,11.0,53,0.00,,---,0.00,VWS V14.00,2013-06-20 16:03:00,
2013-06-20 11:05:00,80.4,61.7,30.00,SE,136,3.0,12.0,53,0.00,,---,0.00,VWS V14.00,2013-06-20 16:05:00,
2013-06-20 11:08:00,80.5,61.3,30.00,SSW,205,3.0,11.0,52,0.00,,---,0.00,VWS V14.00,2013-06-20 16:08:00,
2013-06-20 11:10:00,80.6,60.8,30.00,SSE,159,2.0,11.0,51,0.00,,---,0.00,VWS V14.00,2013-06-20 16:10:00,
2013-06-20 11:13:00,80.6,62.4,30.00,ESE,111,1.0,9.0,54,0.00,,---,0.00,VWS V14.00,2013-06-20 16:13:00,
2013-06-20 11:15:00,80.7,63.0,30.00,South,173,4.0,9.0,55,0.00,,---,0.00,VWS V14.00,2013-06-20 16:15:00,
2013-06-20 11:19:00,81.2,61.4,30.00,SSE,168,4.0,9.0,51,0.00,,---,0.00,VWS V14.00,2013-06-20 16:19:00,
2013-06-20 11:20:00,81.3,62.5,30.00,South,182,1.0,9.0,53,0.00,,---,0.00,VWS V14.00,2013-06-20 16:20:00,
2013-06-20 11:24:00,81.6,61.2,30.00,SE,145,7.0,12.0,50,0.00,,---,0.00,VWS V14.00,2013-06-20 16:24:00,
2013-06-20 11:25:00,81.6,59.4,30.00,SSE,153,5.0,12.0,47,0.00,,---,0.00,VWS V14.00,2013-06-20 16:25:00,
2013-06-20 11:29:00,81.7,60.7,29.99,SE,130,10.0,11.0,49,0.00,,---,0.00,VWS V14.00,2013-06-20 16:29:00,
2013-06-20 11:30:00,81.6,59.4,29.99,SSE,157,7.0,13.0,47,0.00,,---,0.00,VWS V14.00,2013-06-20 16:30:00,
2013-06-20 11:34:00,81.6,60.0,30.00,SE,140,3.0,10.0,48,0.00,,---,0.00,VWS V14.00,2013-06-20 16:34:00,
2013-06-20 11:35:00,81.6,60.0,30.00,SE,144,7.0,10.0,48,0.00,,---,0.00,VWS V14.00,2013-06-20 16:35:00,
2013-06-20 11:39:00,81.6,60.6,30.00,South,173,5.0,10.0,49,0.00,,---,0.00,VWS V14.00,2013-06-20 16:39:00,
2013-06-20 11:40:00,81.5,59.9,30.00,SSE,165,3.0,10.0,48,0.00,,---,0.00,VWS V14.00,2013-06-20 16:40:00,
2013-06-20 11:44:00,81.6,60.0,29.99,South,170,4.0,11.0,48,0.00,,---,0.00,VWS V14.00,2013-06-20 16:44:00,
2013-06-20 11:45:00,81.7,60.1,29.99,South,170,9.0,12.0,48,0.00,,---,0.00,VWS V14.00,2013-06-20 16:45:00,
2013-06-20 11:49:00,81.6,60.6,29.99,South,170,9.0,9.0,49,0.00,,---,0.00,VWS V14.00,2013-06-20 16:49:00,
2013-06-20 11:50:00,81.7,60.7,29.99,SSE,161,10.0,10.0,49,0.00,,---,0.00,VWS V14.00,2013-06-20 16:50:00,
2013-06-20 11:54:00,82.0,58.6,29.98,SSE,150,6.0,14.0,45,0.00,,---,0.00,VWS V14.00,2013-06-20 16:54:00,
2013-06-20 11:55:00,81.9,59.7,29.98,SSE,157,7.0,14.0,47,0.00,,---,0.00,VWS V14.00,2013-06-20 16:55:00,
2013-06-20 11:59:00,82.2,60.0,29.99,SSE,155,3.0,11.0,47,0.00,,---,0.00,VWS V14.00,2013-06-20 16:59:00,
2013-06-20 12:00:00,82.2,60.0,29.99,SSE,156,4.0,11.0,47,0.00,,---,0.00,VWS V14.00,2013-06-20 17:00:00,
2013-06-20 12:04:00,82.3,58.9,29.98,SE,145,1.0,10.0,45,0.00,,---,0.00,VWS V14.00,2013-06-20 17:04:00,
2013-06-20 12:05:00,82.3,60.1,29.98,South,180,1.0,10.0,47,0.00,,---,0.00,VWS V14.00,2013-06-20 17:05:00,
2013-06-20 12:09:00,82.5,59.7,29.98,SE,130,4.0,10.0,46,0.00,,---,0.00,VWS V14.00,2013-06-20 17:09:00,
2013-06-20 12:10:00,82.4,59.6,29.98,SE,128,0.0,10.0,46,0.00,,---,0.00,VWS V14.00,2013-06-20 17:10:00,
2013-06-20 12:14:00,82.7,58.6,29.98,South,177,5.0,11.0,44,0.00,,---,0.00,VWS V14.00,2013-06-20 17:14:00,
2013-06-20 12:15:00,82.6,57.9,29.98,ESE,117,2.0,11.0,43,0.00,,---,0.00,VWS V14.00,2013-06-20 17:15:00,
2013-06-20 12:19:00,82.5,59.7,29.98,SSE,150,6.0,12.0,46,0.00,,---,0.00,VWS V14.00,2013-06-20 17:19:00,
2013-06-20 12:20:00,82.5,59.7,29.98,SE,141,4.0,12.0,46,0.00,,---,0.00,VWS V14.00,2013-06-20 17:20:00,
2013-06-20 12:24:00,82.7,58.6,29.98,South,172,3.0,12.0,44,0.00,,---,0.00,VWS V14.00,2013-06-20 17:24:00,
2013-06-20 12:25:00,82.7,58.6,29.98,SSE,165,4.0,12.0,44,0.00,,---,0.00,VWS V14.00,2013-06-20 17:25:00,
2013-06-20 12:29:00,82.8,61.7,29.98,South,173,13.0,15.0,49,0.00,,---,0.00,VWS V14.00,2013-06-20 17:29:00,
2013-06-20 12:30:00,82.8,59.9,29.98,South,170,4.0,15.0,46,0.00,,---,0.00,VWS V14.00,2013-06-20 17:30:00,
2013-06-20 12:34:00,82.9,59.4,29.97,SSE,168,5.0,10.0,45,0.00,,---,0.00,VWS V14.00,2013-06-20 17:34:00,
2013-06-20 12:35:00,83.0,58.9,29.97,SSE,159,2.0,10.0,44,0.00,,---,0.00,VWS V14.00,2013-06-20 17:35:00,
2013-06-20 12:39:00,83.3,58.5,29.97,South,172,7.0,10.0,43,0.00,,---,0.00,VWS V14.00,2013-06-20 17:39:00,
2013-06-20 12:40:00,83.3,57.8,29.97,South,172,2.0,10.0,42,0.00,,---,0.00,VWS V14.00,2013-06-20 17:40:00,
2013-06-20 12:44:00,83.7,59.5,29.97,South,171,4.0,10.0,44,0.00,,---,0.00,VWS V14.00,2013-06-20 17:44:00,
2013-06-20 12:45:00,83.7,59.5,29.97,South,183,4.0,10.0,44,0.00,,---,0.00,VWS V14.00,2013-06-20 17:45:00,
2013-06-20 12:49:00,83.5,58.7,29.97,SE,124,7.0,11.0,43,0.00,,---,0.00,VWS V14.00,2013-06-20 17:49:00,
2013-06-20 12:50:00,83.4,57.9,29.97,ESE,116,7.0,11.0,42,0.00,,---,0.00,VWS V14.00,2013-06-20 17:50:00,
2013-06-20 12:54:00,83.3,55.8,29.97,SSE,154,5.0,14.0,39,0.00,,---,0.00,VWS V14.00,2013-06-20 17:54:00,
2013-06-20 12:55:00,83.3,56.5,29.97,SSE,150,4.0,14.0,40,0.00,,---,0.00,VWS V14.00,2013-06-20 17:55:00,
2013-06-20 12:59:00,83.0,55.5,29.97,SE,144,6.0,13.0,39,0.00,,---,0.00,VWS V14.00,2013-06-20 17:59:00,
2013-06-20 13:00:00,83.1,56.3,29.97,SSE,160,2.0,13.0,40,0.00,,---,0.00,VWS V14.00,2013-06-20 18:00:00,
2013-06-20 13:04:00,83.4,57.9,29.96,SW,223,6.0,10.0,42,0.00,,---,0.00,VWS V14.00,2013-06-20 18:04:00,
2013-06-20 13:05:00,83.4,56.6,29.96,South,172,3.0,10.0,40,0.00,,---,0.00,VWS V14.00,2013-06-20 18:05:00,
2013-06-20 13:09:00,83.4,57.3,29.96,SSE,152,4.0,10.0,41,0.00,,---,0.00,VWS V14.00,2013-06-20 18:09:00,
2013-06-20 13:10:00,83.4,57.9,29.96,SSE,161,3.0,10.0,42,0.00,,---,0.00,VWS V14.00,2013-06-20 18:10:00,
2013-06-20 13:14:00,83.7,58.2,29.96,SSE,161,6.0,12.0,42,0.00,,---,0.00,VWS V14.00,2013-06-20 18:14:00,
2013-06-20 13:15:00,83.7,59.5,29.96,SSE,153,5.0,12.0,44,0.00,,---,0.00,VWS V14.00,2013-06-20 18:15:00,
2013-06-20 13:19:00,84.1,57.9,29.96,SSE,156,3.0,11.0,41,0.00,,---,0.00,VWS V14.00,2013-06-20 18:19:00,
2013-06-20 13:20:00,84.1,57.9,29.96,SSE,167,5.0,11.0,41,0.00,,---,0.00,VWS V14.00,2013-06-20 18:20:00,
2013-06-20 13:24:00,84.1,59.9,29.96,SSE,157,3.0,6.0,44,0.00,,---,0.00,VWS V14.00,2013-06-20 18:24:00,
2013-06-20 13:25:00,84.1,59.9,29.96,SSE,168,5.0,6.0,44,0.00,,---,0.00,VWS V14.00,2013-06-20 18:25:00,
2013-06-20 13:29:00,84.1,57.2,29.96,SSE,163,3.0,11.0,40,0.00,,---,0.00,VWS V14.00,2013-06-20 18:29:00,
2013-06-20 13:30:00,84.1,57.2,29.96,SSE,163,1.0,11.0,40,0.00,,---,0.00,VWS V14.00,2013-06-20 18:30:00,
2013-06-20 13:34:00,84.5,59.6,29.96,SSE,153,9.0,11.0,43,0.00,,---,0.00,VWS V14.00,2013-06-20 18:34:00,
2013-06-20 13:35:00,84.5,59.6,29.96,SE,125,7.0,15.0,43,0.00,,---,0.00,VWS V14.00,2013-06-20 18:35:00,
2013-06-20 13:39:00,84.4,58.2,29.96,SSE,147,6.0,12.0,41,0.00,,---,0.00,VWS V14.00,2013-06-20 18:39:00,
2013-06-20 13:40:00,84.3,58.1,29.96,SE,144,5.0,12.0,41,0.00,,---,0.00,VWS V14.00,2013-06-20 18:40:00,
2013-06-20 13:44:00,84.5,60.2,29.96,South,189,5.0,11.0,44,0.00,,---,0.00,VWS V14.00,2013-06-20 18:44:00,
2013-06-20 13:45:00,84.5,57.5,29.96,SW,219,3.0,11.0,40,0.00,,---,0.00,VWS V14.00,2013-06-20 18:45:00,
2013-06-20 13:49:00,84.4,60.1,29.96,SSE,149,2.0,6.0,44,0.00,,---,0.00,VWS V14.00,2013-06-20 18:49:00,
2013-06-20 13:50:00,84.4,58.8,29.96,SSE,165,7.0,9.0,42,0.00,,---,0.00,VWS V14.00,2013-06-20 18:50:00,
2013-06-20 13:54:00,84.4,57.5,29.96,SSW,194,3.0,13.0,40,0.00,,---,0.00,VWS V14.00,2013-06-20 18:54:00,
2013-06-20 13:55:00,84.4,57.5,29.96,South,174,5.0,13.0,40,0.00,,---,0.00,VWS V14.00,2013-06-20 18:55:00,
2013-06-20 13:59:00,84.2,58.0,29.95,SE,130,0.0,10.0,41,0.00,,---,0.00,VWS V14.00,2013-06-20 18:59:00,
2013-06-20 14:00:00,84.2,58.0,29.95,SSE,164,5.0,10.0,41,0.00,,---,0.00,VWS V14.00,2013-06-20 19:00:00,
2013-06-20 14:04:00,84.3,56.7,29.96,SE,143,2.0,12.0,39,0.00,,---,0.00,VWS V14.00,2013-06-20 19:04:00,
2013-06-20 14:05:00,84.3,56.7,29.96,SE,144,6.0,12.0,39,0.00,,---,0.00,VWS V14.00,2013-06-20 19:05:00,
2013-06-20 14:09:00,84.5,57.5,29.95,ESE,122,6.0,11.0,40,0.00,,---,0.00,VWS V14.00,2013-06-20 19:09:00,
2013-06-20 14:10:00,84.5,57.5,29.95,SE,145,8.0,11.0,40,0.00,,---,0.00,VWS V14.00,2013-06-20 19:10:00,
2013-06-20 14:14:00,84.5,57.5,29.95,SSE,163,11.0,13.0,40,0.00,,---,0.00,VWS V14.00,2013-06-20 19:14:00,
2013-06-20 14:15:00,84.5,57.5,29.95,South,172,9.0,13.0,40,0.00,,---,0.00,VWS V14.00,2013-06-20 19:15:00,
2013-06-20 14:19:00,84.5,56.8,29.95,SE,130,9.0,13.0,39,0.00,,---,0.00,VWS V14.00,2013-06-20 19:19:00,
2013-06-20 14:20:00,84.5,57.5,29.95,SSE,154,6.0,13.0,40,0.00,,---,0.00,VWS V14.00,2013-06-20 19:20:00,
2013-06-20 14:24:00,84.7,57.0,29.95,SW,214,4.0,12.0,39,0.00,,---,0.00,VWS V14.00,2013-06-20 19:24:00,
2013-06-20 14:25:00,84.7,57.0,29.95,SSW,203,5.0,12.0,39,0.00,,---,0.00,VWS V14.00,2013-06-20 19:25:00,
2013-06-20 14:29:00,84.8,57.1,29.95,SSE,162,5.0,11.0,39,0.00,,---,0.00,VWS V14.00,2013-06-20 19:29:00,
2013-06-20 14:30:00,84.8,57.1,29.95,SSE,158,7.0,11.0,39,0.00,,---,0.00,VWS V14.00,2013-06-20 19:30:00,
2013-06-20 14:34:00,84.8,58.5,29.95,SE,134,13.0,13.0,41,0.00,,---,0.00,VWS V14.00,2013-06-20 19:34:00,
2013-06-20 14:35:00,84.8,58.5,29.95,SSW,205,4.0,13.0,41,0.00,,---,0.00,VWS V14.00,2013-06-20 19:35:00,
2013-06-20 14:39:00,84.7,59.1,29.94,SSE,159,4.0,14.0,42,0.00,,---,0.00,VWS V14.00,2013-06-20 19:39:00,
2013-06-20 14:40:00,84.7,59.1,29.94,SE,144,4.0,14.0,42,0.00,,---,0.00,VWS V14.00,2013-06-20 19:40:00,
2013-06-20 14:44:00,84.9,59.9,29.94,SSE,168,9.0,9.0,43,0.00,,---,0.00,VWS V14.00,2013-06-20 19:44:00,
2013-06-20 14:45:00,84.9,59.9,29.94,South,178,6.0,9.0,43,0.00,,---,0.00,VWS V14.00,2013-06-20 19:45:00,
2013-06-20 14:49:00,85.2,58.9,29.94,South,170,0.0,10.0,41,0.00,,---,0.00,VWS V14.00,2013-06-20 19:49:00,
2013-06-20 14:50:00,85.2,58.9,29.94,South,169,0.0,10.0,41,0.00,,---,0.00,VWS V14.00,2013-06-20 19:50:00,
2013-06-20 14:54:00,85.0,57.3,29.94,SSE,163,5.0,13.0,39,0.00,,---,0.00,VWS V14.00,2013-06-20 19:54:00,
2013-06-20 14:55:00,85.0,58.0,29.94,SSE,167,4.0,13.0,40,0.00,,---,0.00,VWS V14.00,2013-06-20 19:55:00,
2013-06-20 14:59:00,84.6,57.6,29.94,SSW,209,3.0,12.0,40,0.00,,---,0.00,VWS V14.00,2013-06-20 19:59:00,
2013-06-20 15:00:00,84.6,57.6,29.94,SSW,206,3.0,12.0,40,0.00,,---,0.00,VWS V14.00,2013-06-20 20:00:00,
2013-06-20 15:04:00,84.8,61.1,29.94,South,180,1.0,7.0,45,0.00,,---,0.00,VWS V14.00,2013-06-20 20:04:00,
2013-06-20 15:05:00,84.8,61.1,29.94,South,180,1.0,7.0,45,0.00,,---,0.00,VWS V14.00,2013-06-20 20:05:00,
2013-06-20 15:09:00,85.0,58.7,29.94,SSE,165,6.0,13.0,41,0.00,,---,0.00,VWS V14.00,2013-06-20 20:09:00,
2013-06-20 15:10:00,85.0,58.7,29.94,SSE,165,6.0,13.0,41,0.00,,---,0.00,VWS V14.00,2013-06-20 20:10:00,
2013-06-20 15:14:00,85.4,59.0,29.94,SSE,148,6.0,7.0,41,0.00,,---,0.00,VWS V14.00,2013-06-20 20:14:00,
2013-06-20 15:15:00,85.4,59.0,29.94,SSE,148,6.0,7.0,41,0.00,,---,0.00,VWS V14.00,2013-06-20 20:15:00,
2013-06-20 15:19:00,85.4,60.4,29.93,SSE,161,5.0,10.0,43,0.00,,---,0.00,VWS V14.00,2013-06-20 20:19:00,
2013-06-20 15:20:00,85.4,60.4,29.93,SSE,161,5.0,10.0,43,0.00,,---,0.00,VWS V14.00,2013-06-20 20:20:00,
2013-06-20 15:24:00,85.4,60.4,29.94,SSE,148,1.0,11.0,43,0.00,,---,0.00,VWS V14.00,2013-06-20 20:24:00,
2013-06-20 15:25:00,85.4,60.4,29.94,SSE,148,1.0,11.0,43,0.00,,---,0.00,VWS V14.00,2013-06-20 20:25:00,
2013-06-20 15:29:00,85.4,61.7,29.93,SSW,205,0.0,10.0,45,0.00,,---,0.00,VWS V14.00,2013-06-20 20:29:00,
2013-06-20 15:30:00,85.4,61.7,29.93,SSW,205,0.0,10.0,45,0.00,,---,0.00,VWS V14.00,2013-06-20 20:30:00,
2013-06-20 15:34:00,85.4,59.7,29.93,South,169,1.0,9.0,42,0.00,,---,0.00,VWS V14.00,2013-06-20 20:34:00,
2013-06-20 15:35:00,85.4,59.7,29.93,South,169,1.0,9.0,42,0.00,,---,0.00,VWS V14.00,2013-06-20 20:35:00,
2013-06-20 15:39:00,85.2,60.2,29.93,WSW,242,4.0,11.0,43,0.00,,---,0.00,VWS V14.00,2013-06-20 20:39:00,
2013-06-20 15:40:00,85.2,60.2,29.93,WSW,242,4.0,11.0,43,0.00,,---,0.00,VWS V14.00,2013-06-20 20:40:00,
2013-06-20 15:44:00,85.1,60.1,29.93,South,170,7.0,12.0,43,0.00,,---,0.00,VWS V14.00,2013-06-20 20:44:00,
2013-06-20 15:45:00,85.1,60.1,29.93,South,170,7.0,12.0,43,0.00,,---,0.00,VWS V14.00,2013-06-20 20:45:00,
2013-06-20 15:49:00,85.2,60.8,29.93,SSE,161,0.0,12.0,44,0.00,,---,0.00,VWS V14.00,2013-06-20 20:49:00,
2013-06-20 15:50:00,85.2,60.8,29.93,SSE,161,0.0,12.0,44,0.00,,---,0.00,VWS V14.00,2013-06-20 20:50:00,
2013-06-20 15:54:00,85.1,60.8,29.93,SSW,197,3.0,10.0,44,0.00,,---,0.00,VWS V14.00,2013-06-20 20:54:00,
2013-06-20 15:55:00,85.1,60.8,29.93,SSW,197,3.0,10.0,44,0.00,,---,0.00,VWS V14.00,2013-06-20 20:55:00,
2013-06-20 15:59:00,85.1,60.1,29.93,South,176,6.0,11.0,43,0.00,,---,0.00,VWS V14.00,2013-06-20 20:59:00,
2013-06-20 16:00:00,85.1,60.1,29.93,South,176,6.0,11.0,43,0.00,,---,0.00,VWS V14.00,2013-06-20 21:00:00,
2013-06-20 16:04:00,85.3,61.6,29.93,South,169,1.0,11.0,45,0.00,,---,0.00,VWS V14.00,2013-06-20 21:04:00,
2013-06-20 16:05:00,85.3,61.6,29.93,South,169,1.0,11.0,45,0.00,,---,0.00,VWS V14.00,2013-06-20 21:05:00,
2013-06-20 16:09:00,85.4,59.0,29.93,ESE,107,0.0,10.0,41,0.00,,---,0.00,VWS V14.00,2013-06-20 21:09:00,
2013-06-20 16:10:00,85.4,59.0,29.93,ESE,107,0.0,10.0,41,0.00,,---,0.00,VWS V14.00,2013-06-20 21:10:00,
2013-06-20 16:14:00,85.3,59.6,29.93,SSE,166,2.0,11.0,42,0.00,,---,0.00,VWS V14.00,2013-06-20 21:14:00,
2013-06-20 16:15:00,85.3,59.6,29.93,SSE,166,2.0,11.0,42,0.00,,---,0.00,VWS V14.00,2013-06-20 21:15:00,
2013-06-20 16:19:00,85.3,59.6,29.93,South,171,2.0,10.0,42,0.00,,---,0.00,VWS V14.00,2013-06-20 21:19:00,
2013-06-20 16:20:00,85.3,59.6,29.93,South,171,2.0,10.0,42,0.00,,---,0.00,VWS V14.00,2013-06-20 21:20:00,
2013-06-20 16:24:00,85.2,60.8,29.92,SSE,168,5.0,10.0,44,0.00,,---,0.00,VWS V14.00,2013-06-20 21:24:00,
2013-06-20 16:25:00,85.2,60.8,29.92,SSE,168,5.0,10.0,44,0.00,,---,0.00,VWS V14.00,2013-06-20 21:25:00,
2013-06-20 16:29:00,85.2,59.5,29.92,SSE,164,5.0,12.0,42,0.00,,---,0.00,VWS V14.00,2013-06-20 21:29:00,
2013-06-20 16:30:00,85.2,59.5,29.92,SSE,164,5.0,12.0,42,0.00,,---,0.00,VWS V14.00,2013-06-20 21:30:00,
2013-06-20 16:34:00,85.2,59.5,29.92,South,183,4.0,11.0,42,0.00,,---,0.00,VWS V14.00,2013-06-20 21:34:00,
2013-06-20 16:35:00,85.2,59.5,29.92,South,183,4.0,11.0,42,0.00,,---,0.00,VWS V14.00,2013-06-20 21:35:00,
2013-06-20 16:39:00,85.2,59.5,29.92,SSE,167,2.0,10.0,42,0.00,,---,0.00,VWS V14.00,2013-06-20 21:39:00,
2013-06-20 16:40:00,85.2,59.5,29.92,SSE,167,2.0,10.0,42,0.00,,---,0.00,VWS V14.00,2013-06-20 21:40:00,
2013-06-20 16:44:00,85.5,59.8,29.92,South,178,0.0,8.0,42,0.00,,---,0.00,VWS V14.00,2013-06-20 21:44:00,
2013-06-20 16:45:00,85.5,59.8,29.92,South,178,0.0,8.0,42,0.00,,---,0.00,VWS V14.00,2013-06-20 21:45:00,
2013-06-20 16:49:00,85.3,59.6,29.92,SSE,167,4.0,13.0,42,0.00,,---,0.00,VWS V14.00,2013-06-20 21:49:00,
2013-06-20 16:50:00,85.3,59.6,29.92,SSE,167,4.0,13.0,42,0.00,,---,0.00,VWS V14.00,2013-06-20 21:50:00,
2013-06-20 16:54:00,85.4,60.4,29.91,SSE,161,3.0,12.0,43,0.00,,---,0.00,VWS V14.00,2013-06-20 21:54:00,
2013-06-20 16:55:00,85.4,60.4,29.91,SSE,161,3.0,12.0,43,0.00,,---,0.00,VWS V14.00,2013-06-20 21:55:00,
2013-06-20 16:59:00,85.6,59.9,29.91,SSW,205,2.0,6.0,42,0.00,,---,0.00,VWS V14.00,2013-06-20 21:59:00,
2013-06-20 17:00:00,85.6,59.9,29.91,SSW,205,2.0,6.0,42,0.00,,---,0.00,VWS V14.00,2013-06-20 22:00:00,
2013-06-20 17:04:00,85.4,59.0,29.91,South,171,4.0,12.0,41,0.00,,---,0.00,VWS V14.00,2013-06-20 22:04:00,
2013-06-20 17:05:00,85.4,59.0,29.91,South,171,4.0,12.0,41,0.00,,---,0.00,VWS V14.00,2013-06-20 22:05:00,
2013-06-20 17:09:00,85.2,59.5,29.91,SSE,154,5.0,12.0,42,0.00,,---,0.00,VWS V14.00,2013-06-20 22:09:00,
2013-06-20 17:10:00,85.2,59.5,29.91,SSE,154,5.0,12.0,42,0.00,,---,0.00,VWS V14.00,2013-06-20 22:10:00,
2013-06-20 17:14:00,85.3,60.3,29.90,South,173,1.0,13.0,43,0.00,,---,0.00,VWS V14.00,2013-06-20 22:14:00,
2013-06-20 17:15:00,85.3,60.3,29.90,South,173,1.0,13.0,43,0.00,,---,0.00,VWS V14.00,2013-06-20 22:15:00,
2013-06-20 17:19:00,85.3,59.6,29.90,South,183,5.0,10.0,42,0.00,,---,0.00,VWS V14.00,2013-06-20 22:19:00,
2013-06-20 17:20:00,85.3,59.6,29.90,South,183,5.0,10.0,42,0.00,,---,0.00,VWS V14.00,2013-06-20 22:20:00,
2013-06-20 17:24:00,85.3,59.6,29.89,SSE,155,1.0,13.0,42,0.00,,---,0.00,VWS V14.00,2013-06-20 22:24:00,
2013-06-20 17:25:00,85.3,59.6,29.89,SSE,155,1.0,13.0,42,0.00,,---,0.00,VWS V14.00,2013-06-20 22:25:00,
2013-06-20 17:29:00,85.2,60.8,29.90,SSE,159,1.0,7.0,44,0.00,,---,0.00,VWS V14.00,2013-06-20 22:29:00,
2013-06-20 17:30:00,85.2,60.8,29.90,SSE,159,1.0,7.0,44,0.00,,---,0.00,VWS V14.00,2013-06-20 22:30:00,
2013-06-20 17:34:00,85.2,60.2,29.90,South,176,3.0,7.0,43,0.00,,---,0.00,VWS V14.00,2013-06-20 22:34:00,
2013-06-20 17:35:00,85.2,60.2,29.90,South,176,3.0,7.0,43,0.00,,---,0.00,VWS V14.00,2013-06-20 22:35:00,
2013-06-20 17:39:00,85.1,60.8,29.90,South,173,1.0,9.0,44,0.00,,---,0.00,VWS V14.00,2013-06-20 22:39:00,
2013-06-20 17:40:00,85.1,60.8,29.90,South,173,1.0,9.0,44,0.00,,---,0.00,VWS V14.00,2013-06-20 22:40:00,
2013-06-20 17:44:00,85.0,61.3,29.90,South,178,3.0,5.0,45,0.00,,---,0.00,VWS V14.00,2013-06-20 22:44:00,
2013-06-20 17:45:00,85.0,61.3,29.90,South,178,3.0,5.0,45,0.00,,---,0.00,VWS V14.00,2013-06-20 22:45:00,
2013-06-20 17:49:00,84.9,60.6,29.90,South,170,3.0,9.0,44,0.00,,---,0.00,VWS V14.00,2013-06-20 22:49:00,
2013-06-20 17:50:00,84.9,60.6,29.90,South,170,3.0,9.0,44,0.00,,---,0.00,VWS V14.00,2013-06-20 22:50:00,
2013-06-20 17:54:00,84.7,61.0,29.89,SW,234,2.0,9.0,45,0.00,,---,0.00,VWS V14.00,2013-06-20 22:54:00,
2013-06-20 17:55:00,84.7,61.0,29.89,SW,234,2.0,9.0,45,0.00,,---,0.00,VWS V14.00,2013-06-20 22:55:00,
2013-06-20 17:59:00,84.7,61.7,29.90,South,183,4.0,9.0,46,0.00,,---,0.00,VWS V14.00,2013-06-20 22:59:00,
2013-06-20 18:00:00,84.7,61.7,29.90,South,183,4.0,9.0,46,0.00,,---,0.00,VWS V14.00,2013-06-20 23:00:00,
2013-06-20 18:04:00,84.7,61.7,29.89,SSE,167,1.0,11.0,46,0.00,,---,0.00,VWS V14.00,2013-06-20 23:04:00,
2013-06-20 18:05:00,84.7,61.7,29.89,SSE,167,1.0,11.0,46,0.00,,---,0.00,VWS V14.00,2013-06-20 23:05:00,
2013-06-20 18:09:00,84.5,61.5,29.89,SSE,167,3.0,9.0,46,0.00,,---,0.00,VWS V14.00,2013-06-20 23:09:00,
2013-06-20 18:10:00,84.5,61.5,29.89,SSE,167,3.0,9.0,46,0.00,,---,0.00,VWS V14.00,2013-06-20 23:10:00,
2013-06-20 18:14:00,84.5,62.1,29.89,SSE,168,0.0,5.0,47,0.00,,---,0.00,VWS V14.00,2013-06-20 23:14:00,
2013-06-20 18:15:00,84.5,62.1,29.89,SSE,168,0.0,5.0,47,0.00,,---,0.00,VWS V14.00,2013-06-20 23:15:00,
2013-06-20 18:19:00,84.5,62.7,29.89,South,173,9.0,9.0,48,0.00,,---,0.00,VWS V14.00,2013-06-20 23:19:00,
2013-06-20 18:20:00,84.5,62.7,29.89,South,173,9.0,9.0,48,0.00,,---,0.00,VWS V14.00,2013-06-20 23:20:00,
2013-06-20 18:24:00,84.4,62.0,29.89,SSE,160,3.0,11.0,47,0.00,,---,0.00,VWS V14.00,2013-06-20 23:24:00,
2013-06-20 18:25:00,84.4,62.0,29.89,SSE,160,3.0,11.0,47,0.00,,---,0.00,VWS V14.00,2013-06-20 23:25:00,
2013-06-20 18:29:00,84.2,62.4,29.89,South,173,4.0,8.0,48,0.00,,---,0.00,VWS V14.00,2013-06-20 23:29:00,
2013-06-20 18:30:00,84.2,62.4,29.89,South,173,4.0,8.0,48,0.00,,---,0.00,VWS V14.00,2013-06-20 23:30:00,
2013-06-20 18:34:00,84.1,62.3,29.89,SSE,160,0.0,7.0,48,0.00,,---,0.00,VWS V14.00,2013-06-20 23:34:00,
2013-06-20 18:35:00,84.1,62.3,29.89,SSE,160,0.0,7.0,48,0.00,,---,0.00,VWS V14.00,2013-06-20 23:35:00,
2013-06-20 18:39:00,84.0,62.2,29.89,South,182,5.0,9.0,48,0.00,,---,0.00,VWS V14.00,2013-06-20 23:39:00,
2013-06-20 18:40:00,84.0,62.2,29.89,South,182,5.0,9.0,48,0.00,,---,0.00,VWS V14.00,2013-06-20 23:40:00,
2013-06-20 18:44:00,84.0,62.8,29.89,SSE,167,1.0,6.0,49,0.00,,---,0.00,VWS V14.00,2013-06-20 23:44:00,
2013-06-20 18:45:00,84.0,62.8,29.89,SSE,167,1.0,6.0,49,0.00,,---,0.00,VWS V14.00,2013-06-20 23:45:00,
2013-06-20 18:49:00,83.8,62.6,29.89,SSE,157,2.0,6.0,49,0.00,,---,0.00,VWS V14.00,2013-06-20 23:49:00,
2013-06-20 18:50:00,83.8,62.6,29.89,SSE,157,2.0,6.0,49,0.00,,---,0.00,VWS V14.00,2013-06-20 23:50:00,
2013-06-20 18:54:00,83.7,63.7,29.89,SSE,165,0.0,4.0,51,0.00,,---,0.00,VWS V14.00,2013-06-20 23:54:00,
2013-06-20 18:55:00,83.7,63.7,29.89,SSE,165,0.0,4.0,51,0.00,,---,0.00,VWS V14.00,2013-06-20 23:55:00,
2013-06-20 18:59:00,83.6,63.0,29.88,South,169,6.0,6.0,50,0.00,,---,0.00,VWS V14.00,2013-06-20 23:59:00,
2013-06-20 19:00:00,83.6,63.0,29.88,South,169,6.0,6.0,50,0.00,,---,0.00,VWS V14.00,2013-06-21 00:00:00,
2013-06-20 19:04:00,83.5,62.9,29.88,SSE,163,1.0,6.0,50,0.00,,---,0.00,VWS V14.00,2013-06-21 00:04:00,
2013-06-20 19:05:00,83.5,62.9,29.88,SSE,163,1.0,6.0,50,0.00,,---,0.00,VWS V14.00,2013-06-21 00:05:00,
2013-06-20 19:09:00,83.3,63.3,29.88,SSE,163,0.0,1.0,51,0.00,,---,0.00,VWS V14.00,2013-06-21 00:09:00,
2013-06-20 19:10:00,83.3,63.3,29.88,SSE,163,0.0,1.0,51,0.00,,---,0.00,VWS V14.00,2013-06-21 00:10:00,
2013-06-20 19:14:00,83.1,63.1,29.89,WSW,240,0.0,3.0,51,0.00,,---,0.00,VWS V14.00,2013-06-21 00:14:00,
2013-06-20 19:15:00,83.1,63.1,29.89,WSW,240,0.0,3.0,51,0.00,,---,0.00,VWS V14.00,2013-06-21 00:15:00,
2013-06-20 19:19:00,83.0,63.6,29.88,North,5,0.0,0.0,52,0.00,,---,0.00,VWS V14.00,2013-06-21 00:19:00,
2013-06-20 19:20:00,83.0,63.6,29.88,North,5,0.0,0.0,52,0.00,,---,0.00,VWS V14.00,2013-06-21 00:20:00,
2013-06-20 19:24:00,82.7,63.8,29.89,North,5,0.0,0.0,53,0.00,,---,0.00,VWS V14.00,2013-06-21 00:24:00,
2013-06-20 19:25:00,82.7,63.8,29.88,North,5,0.0,1.0,53,0.00,,---,0.00,VWS V14.00,2013-06-21 00:25:00,
2013-06-20 19:29:00,82.4,63.6,29.89,SSE,148,0.0,0.0,53,0.00,,---,0.00,VWS V14.00,2013-06-21 00:29:00,
2013-06-20 19:30:00,82.4,63.6,29.89,SSE,148,0.0,4.0,53,0.00,,---,0.00,VWS V14.00,2013-06-21 00:30:00,
2013-06-20 19:34:00,82.2,64.4,29.89,SSE,148,0.0,0.0,55,0.00,,---,0.00,VWS V14.00,2013-06-21 00:34:00,
2013-06-20 19:35:00,82.2,64.4,29.89,SSE,148,0.0,1.0,55,0.00,,---,0.00,VWS V14.00,2013-06-21 00:35:00,
2013-06-20 19:40:00,82.0,63.2,29.89,SSE,148,0.0,0.0,53,0.00,,---,0.00,VWS V14.00,2013-06-21 00:40:00,
2013-06-20 19:44:00,81.8,64.1,29.89,SSE,148,0.0,0.0,55,0.00,,---,0.00,VWS V14.00,2013-06-21 00:44:00,
2013-06-20 19:45:00,81.8,64.1,29.89,SSE,148,0.0,1.0,55,0.00,,---,0.00,VWS V14.00,2013-06-21 00:45:00,
2013-06-20 19:49:00,81.4,64.2,29.88,SSE,148,0.0,0.0,56,0.00,,---,0.00,VWS V14.00,2013-06-21 00:49:00,
2013-06-20 19:50:00,81.4,64.2,29.89,SSE,148,0.0,0.0,56,0.00,,---,0.00,VWS V14.00,2013-06-21 00:50:00,
2013-06-20 19:55:00,80.8,64.2,29.89,SSE,148,0.0,0.0,57,0.00,,---,0.00,VWS V14.00,2013-06-21 00:55:00,
2013-06-20 20:00:00,80.1,64.0,29.88,SSE,148,0.0,0.0,58,0.00,,---,0.00,VWS V14.00,2013-06-21 01:00:00,
2013-06-20 20:05:00,79.5,64.4,29.88,SSE,148,0.0,0.0,60,0.00,,---,0.00,VWS V14.00,2013-06-21 01:05:00,
2013-06-20 20:10:00,78.8,64.2,29.88,SSE,148,0.0,0.0,61,0.00,,---,0.00,VWS V14.00,2013-06-21 01:10:00,
2013-06-20 20:15:00,78.2,64.1,29.89,SSE,148,0.0,0.0,62,0.00,,---,0.00,VWS V14.00,2013-06-21 01:15:00,
2013-06-20 20:20:00,77.6,64.0,29.89,SSE,148,0.0,0.0,63,0.00,,---,0.00,VWS V14.00,2013-06-21 01:20:00,
2013-06-20 20:25:00,77.1,64.0,29.89,SSE,148,0.0,0.0,64,0.00,,---,0.00,VWS V14.00,2013-06-21 01:25:00,
2013-06-20 20:30:00,76.7,64.1,29.89,SSE,148,0.0,0.0,65,0.00,,---,0.00,VWS V14.00,2013-06-21 01:30:00,
2013-06-20 20:35:00,76.4,64.2,29.89,SSE,148,0.0,0.0,66,0.00,,---,0.00,VWS V14.00,2013-06-21 01:35:00,
2013-06-20 20:40:00,76.1,64.4,29.89,SSE,148,0.0,0.0,67,0.00,,---,0.00,VWS V14.00,2013-06-21 01:40:00,
2013-06-20 20:45:00,75.8,64.1,29.89,SSE,148,0.0,0.0,67,0.00,,---,0.00,VWS V14.00,2013-06-21 01:45:00,
2013-06-20 20:50:00,75.5,63.8,29.90,SSE,148,0.0,0.0,67,0.00,,---,0.00,VWS V14.00,2013-06-21 01:50:00,
2013-06-20 20:55:00,75.2,63.9,29.90,SSE,148,0.0,0.0,68,0.00,,---,0.00,VWS V14.00,2013-06-21 01:55:00,
2013-06-20 21:00:00,74.9,64.1,29.89,SSE,148,0.0,0.0,69,0.00,,---,0.00,VWS V14.00,2013-06-21 02:00:00,
2013-06-20 21:05:00,74.6,63.8,29.89,SSE,148,0.0,0.0,69,0.00,,---,0.00,VWS V14.00,2013-06-21 02:05:00,
2013-06-20 21:10:00,74.3,63.9,29.89,SSE,148,0.0,0.0,70,0.00,,---,0.00,VWS V14.00,2013-06-21 02:10:00,
2013-06-20 21:15:00,74.0,64.0,29.90,SSE,148,0.0,1.0,71,0.00,,---,0.00,VWS V14.00,2013-06-21 02:15:00,
2013-06-20 21:20:00,73.7,64.1,29.90,SSE,148,0.0,0.0,72,0.00,,---,0.00,VWS V14.00,2013-06-21 02:20:00,
2013-06-20 21:25:00,73.6,64.0,29.90,SSE,148,0.0,0.0,72,0.00,,---,0.00,VWS V14.00,2013-06-21 02:25:00,
2013-06-20 21:30:00,73.4,63.8,29.91,SSE,148,0.0,0.0,72,0.00,,---,0.00,VWS V14.00,2013-06-21 02:30:00,
2013-06-20 21:35:00,73.3,63.7,29.91,SSE,148,0.0,1.0,72,0.00,,---,0.00,VWS V14.00,2013-06-21 02:35:00,
2013-06-20 21:40:00,73.2,63.6,29.91,SSE,148,0.0,0.0,72,0.00,,---,0.00,VWS V14.00,2013-06-21 02:40:00,
2013-06-20 21:45:00,73.0,63.8,29.91,SSE,148,0.0,0.0,73,0.00,,---,0.00,VWS V14.00,2013-06-21 02:45:00,
2013-06-20 21:50:00,72.6,63.5,29.91,SSE,148,0.0,0.0,73,0.00,,---,0.00,VWS V14.00,2013-06-21 02:50:00,
2013-06-20 21:55:00,72.3,63.6,29.92,SSE,148,0.0,0.0,74,0.00,,---,0.00,VWS V14.00,2013-06-21 02:55:00,
2013-06-20 22:00:00,72.0,63.7,29.91,SSE,148,0.0,0.0,75,0.00,,---,0.00,VWS V14.00,2013-06-21 03:00:00,
2013-06-20 22:05:00,71.9,63.5,29.91,SSE,148,0.0,0.0,75,0.00,,---,0.00,VWS V14.00,2013-06-21 03:05:00,
2013-06-20 22:10:00,71.7,63.4,29.91,SSE,148,0.0,1.0,75,0.00,,---,0.00,VWS V14.00,2013-06-21 03:10:00,
2013-06-20 22:15:00,71.6,63.6,29.91,SSE,148,0.0,0.0,76,0.00,,---,0.00,VWS V14.00,2013-06-21 03:15:00,
2013-06-20 22:20:00,71.5,63.2,29.92,SSE,148,0.0,0.0,75,0.00,,---,0.00,VWS V14.00,2013-06-21 03:20:00,
2013-06-20 22:25:00,71.3,63.3,29.92,SSE,148,0.0,0.0,76,0.00,,---,0.00,VWS V14.00,2013-06-21 03:25:00,
2013-06-20 22:30:00,71.2,63.3,29.92,SSE,148,0.0,0.0,76,0.00,,---,0.00,VWS V14.00,2013-06-21 03:30:00,
2013-06-20 22:35:00,71.1,63.2,29.92,SSE,148,0.0,0.0,76,0.00,,---,0.00,VWS V14.00,2013-06-21 03:35:00,
2013-06-20 22:40:00,71.4,63.5,29.92,SSE,148,0.0,1.0,76,0.00,,---,0.00,VWS V14.00,2013-06-21 03:40:00,
2013-06-20 22:45:00,72.1,63.8,29.91,SSE,148,0.0,0.0,75,0.00,,---,0.00,VWS V14.00,2013-06-21 03:45:00,
2013-06-20 22:50:00,72.8,64.0,29.91,SSE,148,0.0,1.0,74,0.00,,---,0.00,VWS V14.00,2013-06-21 03:50:00,
2013-06-20 22:55:00,73.5,64.3,29.91,SE,128,0.0,0.0,73,0.00,,---,0.00,VWS V14.00,2013-06-21 03:55:00,
2013-06-20 23:00:00,73.7,64.1,29.91,SE,128,0.0,0.0,72,0.00,,---,0.00,VWS V14.00,2013-06-21 04:00:00,
2013-06-20 23:01:00,73.7,64.1,29.91,SE,128,0.0,1.0,72,0.00,,---,0.00,VWS V14.00,2013-06-21 04:01:00,
2013-06-20 23:05:00,73.8,64.2,29.91,SE,128,0.0,1.0,72,0.00,,---,0.00,VWS V14.00,2013-06-21 04:05:00,
2013-06-20 23:06:00,73.8,64.2,29.91,SE,140,1.0,4.0,72,0.00,,---,0.00,VWS V14.00,2013-06-21 04:06:00,
2013-06-20 23:10:00,73.8,64.2,29.91,SE,140,0.0,4.0,72,0.00,,---,0.00,VWS V14.00,2013-06-21 04:10:00,
2013-06-20 23:11:00,73.8,64.6,29.91,SE,140,0.0,2.0,73,0.00,,---,0.00,VWS V14.00,2013-06-21 04:11:00,
2013-06-20 23:15:00,73.9,64.3,29.91,SSE,164,1.0,4.0,72,0.00,,---,0.00,VWS V14.00,2013-06-21 04:15:00,
2013-06-20 23:16:00,73.9,64.3,29.91,SSE,165,0.0,3.0,72,0.00,,---,0.00,VWS V14.00,2013-06-21 04:16:00,
2013-06-20 23:20:00,73.9,64.3,29.91,SE,133,1.0,3.0,72,0.00,,---,0.00,VWS V14.00,2013-06-21 04:20:00,
2013-06-20 23:21:00,73.9,64.3,29.91,SE,134,1.0,4.0,72,0.00,,---,0.00,VWS V14.00,2013-06-21 04:21:00,
2013-06-20 23:25:00,74.0,64.4,29.91,SSE,161,1.0,4.0,72,0.00,,---,0.00,VWS V14.00,2013-06-21 04:25:00,
2013-06-20 23:26:00,74.0,64.4,29.91,SSE,161,1.0,4.0,72,0.00,,---,0.00,VWS V14.00,2013-06-21 04:26:00,
2013-06-20 23:30:00,74.0,64.4,29.91,South,171,1.0,5.0,72,0.00,,---,0.00,VWS V14.00,2013-06-21 04:30:00,
2013-06-20 23:31:00,74.0,64.4,29.91,South,172,0.0,1.0,72,0.00,,---,0.00,VWS V14.00,2013-06-21 04:31:00,
2013-06-20 23:35:00,73.9,64.3,29.91,South,172,0.0,1.0,72,0.00,,---,0.00,VWS V14.00,2013-06-21 04:35:00,
2013-06-20 23:36:00,73.8,64.2,29.91,South,172,0.0,1.0,72,0.00,,---,0.00,VWS V14.00,2013-06-21 04:36:00,
2013-06-20 23:40:00,73.6,64.0,29.91,South,174,1.0,4.0,72,0.00,,---,0.00,VWS V14.00,2013-06-21 04:40:00,
2013-06-20 23:41:00,73.5,64.3,29.91,South,174,0.0,3.0,73,0.00,,---,0.00,VWS V14.00,2013-06-21 04:41:00,
2013-06-20 23:45:00,73.5,64.3,29.91,South,174,1.0,3.0,73,0.00,,---,0.00,VWS V14.00,2013-06-21 04:45:00,
2013-06-20 23:46:00,73.4,64.2,29.91,South,173,0.0,2.0,73,0.00,,---,0.00,VWS V14.00,2013-06-21 04:46:00,
2013-06-20 23:50:00,73.3,64.1,29.91,South,173,0.0,2.0,73,0.00,,---,0.00,VWS V14.00,2013-06-21 04:50:00,
2013-06-20 23:51:00,73.2,64.0,29.91,South,174,0.0,0.0,73,0.00,,---,0.00,VWS V14.00,2013-06-21 04:51:00,
2013-06-20 23:55:00,73.0,63.8,29.91,South,172,0.0,2.0,73,0.00,,---,0.00,VWS V14.00,2013-06-21 04:55:00,
2013-06-20 23:56:00,73.0,63.8,29.91,South,173,0.0,1.0,73,0.00,,---,0.00,VWS V14.00,2013-06-21 04:56:00,